OneWeb SL0302

operational
NORAD ID: 49091 Int'l Des: 2021-075 Owner: ONEWEBN Country: UK Constellation: oneweb
LEOCIRCULARPOLARONEWEB_TYPE

OneWeb SL0302について

説明を読み込み中...

リアルタイム位置

3D地球を読み込み中...

次回通過

高度履歴

Altitude vs Time

uPlot chart will show altitude changes over time

軌道要素

1 49091U 21075S 25258.16354018 -.00001341 00000-0 -37623-2 0 9992
2 49091 87.8885 45.3023 0001945 99.0057 261.1292 13.12454625198470
Epoch: Sep 15, 2025 • Age: 11 hours

現在のステータス

高度 1221.1 km
速度 7.25 km/s
衛星直下点 52.08°N, 174.43°W
打ち上げ日 Aug 21, 2021
運用期間 4 years
タイプ internet

技術仕様

分類 Payload
質量 148.00 kg
乾燥質量 140.00 kg
総質量 148.00 kg
長さ 1.30 m
直径 1.00 m
スパン 5.00 m
形状 Trapezoid+2 pan
製造者 ONEWUS
バスタイプ ARROW
フェーズステータス In Orbit
所有者/国 ONEWEBN/UK

大規模コンステレーション

Loading constellations...